Year,Month,Day,Hour,Minute,Value (Times are PST for windgust in km/hr)
2012,01,28,01,37,1.60
2012,01,28,01,38,1.60
2012,01,28,01,39,1.60
2012,01,28,01,40,3.20
2012,01,28,01,41,1.60
2012,01,28,01,42,1.60
2012,01,28,01,43,1.60
2012,01,28,01,48,1.60
2012,01,28,01,49,1.60
2012,01,28,01,50,1.60
2012,01,28,01,51,1.60
2012,01,28,02,24,1.60
2012,01,28,02,25,1.60
2012,01,28,02,26,1.60
2012,01,28,02,27,1.60
2012,01,28,02,28,1.60
2012,01,28,02,30,1.60
2012,01,28,02,31,1.60
2012,01,28,02,54,1.60
2012,01,28,02,55,1.60
2012,01,28,02,56,1.60
2012,01,28,02,57,1.60
2012,01,28,03,03,1.60
2012,01,28,03,04,3.20
2012,01,28,03,05,1.60
2012,01,28,03,06,1.60
2012,01,28,03,13,1.60
2012,01,28,03,15,1.60
2012,01,28,03,34,1.60
2012,01,28,03,35,1.60
2012,01,28,03,36,3.20
2012,01,28,03,37,3.20
2012,01,28,03,38,3.20
2012,01,28,03,39,3.20
2012,01,28,03,40,1.60
2012,01,28,03,42,1.60
2012,01,28,03,46,1.60
2012,01,28,03,47,1.60
2012,01,28,03,48,4.80
2012,01,28,03,49,8.10
2012,01,28,03,50,8.10
2012,01,28,03,51,6.40
2012,01,28,03,52,6.40
2012,01,28,03,53,6.40
2012,01,28,03,54,6.40
2012,01,28,03,55,6.40
2012,01,28,03,56,6.40
2012,01,28,03,57,4.80
2012,01,28,03,58,6.40
2012,01,28,03,59,4.80
2012,01,28,04,00,3.20
2012,01,28,04,01,3.20
2012,01,28,04,02,1.60
2012,01,28,04,03,1.60
2012,01,28,04,16,1.60
2012,01,28,04,17,3.20
2012,01,28,04,18,3.20
2012,01,28,04,19,3.20
2012,01,28,04,20,3.20
2012,01,28,04,21,1.60
2012,01,28,04,22,1.60
2012,01,28,05,02,1.60
2012,01,28,05,03,3.20
2012,01,28,05,04,1.60
2012,01,28,05,05,1.60
2012,01,28,05,06,1.60
2012,01,28,05,10,1.60
2012,01,28,05,12,1.60
2012,01,28,05,13,3.20
2012,01,28,05,14,3.20
2012,01,28,05,15,3.20
2012,01,28,05,16,3.20
2012,01,28,05,17,4.80
2012,01,28,05,18,3.20
2012,01,28,05,19,4.80
2012,01,28,05,20,3.20
2012,01,28,05,21,1.60
2012,01,28,05,22,1.60
2012,01,28,05,51,1.60
2012,01,28,05,52,1.60
2012,01,28,05,53,3.20
2012,01,28,05,54,3.20
2012,01,28,05,55,4.80
2012,01,28,05,56,4.80
2012,01,28,05,57,3.20
2012,01,28,05,58,4.80
2012,01,28,05,59,3.20
2012,01,28,06,00,1.60
2012,01,28,06,03,1.60
2012,01,28,06,04,1.60
2012,01,28,06,19,1.60
2012,01,28,06,35,1.60
2012,01,28,06,53,1.60
2012,01,28,06,54,1.60
2012,01,28,06,57,1.60
2012,01,28,06,58,1.60
2012,01,28,07,00,1.60
2012,01,28,07,02,1.60
2012,01,28,07,10,1.60
2012,01,28,07,11,3.20
2012,01,28,07,12,3.20
2012,01,28,07,13,1.60
2012,01,28,07,14,1.60
2012,01,28,07,15,1.60
2012,01,28,07,18,1.60
2012,01,28,07,20,1.60
2012,01,28,07,21,3.20
2012,01,28,07,22,1.60
2012,01,28,07,23,3.20
2012,01,28,07,24,3.20
2012,01,28,07,25,1.60
2012,01,28,07,26,3.20
2012,01,28,07,28,1.60
2012,01,28,07,41,1.60
2012,01,28,07,42,1.60
2012,01,28,07,45,3.20
2012,01,28,07,46,3.20
2012,01,28,08,08,3.20
2012,01,28,08,09,1.60
2012,01,28,08,14,3.20
2012,01,28,08,15,1.60
2012,01,28,08,16,3.20
2012,01,28,08,17,1.60
2012,01,28,08,18,3.20
2012,01,28,08,19,6.40
2012,01,28,08,20,3.20
2012,01,28,08,21,1.60
2012,01,28,08,25,1.60
2012,01,28,08,29,4.80
2012,01,28,08,30,3.20
2012,01,28,08,33,4.80
2012,01,28,08,34,4.80
2012,01,28,08,35,3.20
2012,01,28,08,36,1.60
2012,01,28,08,37,1.60
2012,01,28,08,39,1.60
2012,01,28,08,41,1.60
2012,01,28,08,44,1.60
2012,01,28,08,45,4.80
2012,01,28,08,46,3.20
2012,01,28,08,47,4.80
2012,01,28,08,48,6.40
2012,01,28,08,49,3.20
2012,01,28,08,50,1.60
2012,01,28,09,03,1.60
2012,01,28,09,04,1.60
2012,01,28,09,05,3.20
2012,01,28,09,06,1.60
2012,01,28,09,07,1.60
2012,01,28,09,08,1.60
2012,01,28,09,09,1.60
2012,01,28,09,14,1.60
2012,01,28,09,15,1.60
2012,01,28,09,17,1.60
2012,01,28,09,20,1.60
2012,01,28,09,21,1.60
2012,01,28,09,25,1.60
2012,01,28,09,26,3.20
2012,01,28,09,27,3.20
2012,01,28,09,28,1.60
2012,01,28,09,29,3.20
2012,01,28,09,30,4.80
2012,01,28,09,31,3.20
2012,01,28,09,32,1.60
2012,01,28,09,33,4.80
2012,01,28,09,34,3.20
2012,01,28,09,35,1.60
2012,01,28,09,37,1.60
2012,01,28,09,39,1.60
2012,01,28,09,44,1.60
2012,01,28,09,45,1.60
2012,01,28,09,50,1.60
2012,01,28,09,51,1.60
2012,01,28,09,52,1.60
2012,01,28,09,53,1.60
2012,01,28,09,54,1.60
2012,01,28,09,55,1.60
2012,01,28,09,57,4.80
2012,01,28,09,58,1.60
2012,01,28,09,59,3.20
2012,01,28,10,00,1.60
2012,01,28,10,01,1.60
2012,01,28,10,02,3.20
2012,01,28,10,04,1.60
2012,01,28,10,05,1.60
2012,01,28,10,06,1.60
2012,01,28,10,07,1.60
2012,01,28,10,08,1.60
2012,01,28,10,09,3.20
2012,01,28,10,10,3.20
2012,01,28,10,11,3.20
2012,01,28,10,12,1.60
2012,01,28,10,13,1.60
2012,01,28,10,15,1.60
2012,01,28,10,18,3.20
2012,01,28,10,19,3.20
2012,01,28,10,20,3.20
2012,01,28,10,22,1.60
2012,01,28,10,23,1.60
2012,01,28,10,24,1.60
2012,01,28,10,26,1.60
2012,01,28,10,27,1.60
2012,01,28,10,28,4.80
2012,01,28,10,29,4.80
2012,01,28,10,30,4.80
2012,01,28,10,31,6.40
2012,01,28,10,32,4.80
2012,01,28,10,33,1.60
2012,01,28,10,34,1.60
2012,01,28,10,35,1.60
2012,01,28,10,36,1.60
2012,01,28,10,37,4.80
2012,01,28,10,38,3.20
2012,01,28,10,39,1.60
2012,01,28,10,40,3.20
2012,01,28,10,41,1.60
2012,01,28,10,42,1.60
2012,01,28,10,43,1.60
2012,01,28,10,44,1.60
2012,01,28,10,45,4.80
2012,01,28,10,46,4.80
2012,01,28,10,47,3.20
2012,01,28,10,48,3.20
2012,01,28,10,49,1.60
2012,01,28,10,50,3.20
2012,01,28,10,51,3.20
2012,01,28,10,52,8.10
2012,01,28,10,53,4.80
2012,01,28,10,54,4.80
2012,01,28,10,55,6.40
2012,01,28,10,56,6.40
2012,01,28,10,57,6.40
2012,01,28,10,58,6.40
2012,01,28,10,59,8.10
2012,01,28,11,00,4.80
2012,01,28,11,01,6.40
2012,01,28,11,02,6.40
2012,01,28,11,03,6.40
2012,01,28,11,04,8.10
2012,01,28,11,05,3.20
2012,01,28,11,06,4.80
2012,01,28,11,07,1.60
2012,01,28,11,08,4.80
2012,01,28,11,09,6.40
2012,01,28,11,10,6.40
2012,01,28,11,11,8.10
2012,01,28,11,12,11.30
2012,01,28,11,13,3.20
2012,01,28,11,14,8.10
2012,01,28,11,15,8.10
2012,01,28,11,16,6.40
2012,01,28,11,17,4.80
2012,01,28,11,18,4.80
2012,01,28,11,19,4.80
2012,01,28,11,20,6.40
2012,01,28,11,21,6.40
2012,01,28,11,22,8.10
2012,01,28,11,23,6.40
2012,01,28,11,24,9.60
2012,01,28,11,25,4.80
2012,01,28,11,26,8.10
2012,01,28,11,27,8.10
2012,01,28,11,28,4.80
2012,01,28,11,29,4.80
2012,01,28,11,30,8.10
2012,01,28,11,31,6.40
2012,01,28,11,32,8.10
2012,01,28,11,33,6.40
2012,01,28,11,34,6.40
2012,01,28,11,35,8.10
2012,01,28,11,36,8.10
2012,01,28,11,37,8.10
2012,01,28,11,38,8.10
2012,01,28,11,39,8.10
2012,01,28,11,40,9.60
2012,01,28,11,41,8.10
2012,01,28,11,42,6.40
2012,01,28,11,43,9.60
2012,01,28,11,44,8.10
2012,01,28,11,45,11.30
2012,01,28,11,46,9.60
2012,01,28,11,47,6.40
2012,01,28,11,48,9.60
2012,01,28,11,49,6.40
2012,01,28,11,50,4.80
2012,01,28,11,51,3.20
2012,01,28,11,52,4.80
2012,01,28,11,53,8.10
2012,01,28,11,54,9.60
2012,01,28,11,55,9.60
2012,01,28,11,56,8.10
2012,01,28,11,57,8.10
2012,01,28,11,58,8.10
2012,01,28,11,59,6.40
2012,01,28,12,00,8.10
2012,01,28,12,01,8.10
2012,01,28,12,02,8.10
2012,01,28,12,03,9.60
2012,01,28,12,04,9.60
2012,01,28,12,05,6.40
2012,01,28,12,06,6.40
2012,01,28,12,07,11.30
2012,01,28,12,08,11.30
2012,01,28,12,09,8.10
2012,01,28,12,10,11.30
2012,01,28,12,11,6.40
2012,01,28,12,12,9.60
2012,01,28,12,13,9.60
2012,01,28,12,14,8.10
2012,01,28,12,15,8.10
2012,01,28,12,16,6.40
2012,01,28,12,17,9.60
2012,01,28,12,18,6.40
2012,01,28,12,19,9.60
2012,01,28,12,20,6.40
2012,01,28,12,21,4.80
2012,01,28,12,22,9.60
2012,01,28,12,23,9.60
2012,01,28,12,24,11.30
2012,01,28,12,25,6.40
2012,01,28,12,26,9.60
2012,01,28,12,27,11.30
2012,01,28,12,28,11.30
2012,01,28,12,29,8.10
2012,01,28,12,30,6.40
2012,01,28,12,31,8.10
2012,01,28,12,32,8.10
2012,01,28,12,33,12.90
2012,01,28,12,34,9.60
2012,01,28,12,35,12.90
2012,01,28,12,36,9.60
2012,01,28,12,37,6.40
2012,01,28,12,38,8.10
2012,01,28,12,39,8.10
2012,01,28,12,40,8.10
2012,01,28,12,41,8.10
2012,01,28,12,42,6.40
2012,01,28,12,43,3.20
2012,01,28,12,44,4.80
2012,01,28,12,45,8.10
2012,01,28,12,46,6.40
2012,01,28,12,47,11.30
2012,01,28,12,48,6.40
2012,01,28,12,49,4.80
2012,01,28,12,50,3.20
2012,01,28,12,51,1.60
2012,01,28,12,52,3.20
2012,01,28,12,53,4.80
2012,01,28,12,54,8.10
2012,01,28,12,55,8.10
2012,01,28,12,56,6.40
2012,01,28,12,57,4.80
2012,01,28,12,58,3.20
2012,01,28,12,59,3.20
2012,01,28,13,00,6.40
2012,01,28,13,01,1.60
2012,01,28,13,02,4.80
2012,01,28,13,03,4.80
2012,01,28,13,04,6.40
2012,01,28,13,05,3.20
2012,01,28,13,06,8.10
2012,01,28,13,07,4.80
2012,01,28,13,08,4.80
2012,01,28,13,09,4.80
2012,01,28,13,10,4.80
2012,01,28,13,11,3.20
2012,01,28,13,12,3.20
2012,01,28,13,13,1.60
2012,01,28,13,15,1.60
2012,01,28,13,16,4.80
2012,01,28,13,17,6.40
2012,01,28,13,18,4.80
2012,01,28,13,19,4.80
2012,01,28,13,20,3.20
2012,01,28,13,21,4.80
2012,01,28,13,22,3.20
2012,01,28,13,23,3.20
2012,01,28,13,24,3.20
2012,01,28,13,25,4.80
2012,01,28,13,26,3.20
2012,01,28,13,27,1.60
2012,01,28,13,28,3.20
2012,01,28,13,29,3.20
2012,01,28,13,30,3.20
2012,01,28,13,31,3.20
2012,01,28,13,32,4.80
2012,01,28,13,33,4.80
2012,01,28,13,34,4.80
2012,01,28,13,35,6.40
2012,01,28,13,36,4.80
2012,01,28,13,37,3.20
2012,01,28,13,38,3.20
2012,01,28,13,39,4.80
2012,01,28,13,40,4.80
2012,01,28,13,41,4.80
2012,01,28,13,42,3.20
2012,01,28,13,43,6.40
2012,01,28,13,44,4.80
2012,01,28,13,45,4.80
2012,01,28,13,46,4.80
2012,01,28,13,47,3.20
2012,01,28,13,48,3.20
2012,01,28,13,49,6.40
2012,01,28,13,50,4.80
2012,01,28,13,51,3.20
2012,01,28,13,52,3.20
2012,01,28,13,53,3.20
2012,01,28,13,54,1.60
2012,01,28,13,56,1.60
2012,01,28,13,58,1.60
2012,01,28,13,59,1.60
2012,01,28,14,00,3.20
2012,01,28,14,01,1.60
2012,01,28,14,02,1.60
2012,01,28,14,03,3.20
2012,01,28,14,04,1.60
2012,01,28,14,05,1.60
2012,01,28,14,06,1.60
2012,01,28,14,07,3.20
2012,01,28,14,08,3.20
2012,01,28,14,09,3.20
2012,01,28,14,10,3.20
2012,01,28,14,11,4.80
2012,01,28,14,12,6.40
2012,01,28,14,13,4.80
2012,01,28,14,14,6.40
2012,01,28,14,15,6.40
2012,01,28,14,16,4.80
2012,01,28,14,17,4.80
2012,01,28,14,18,3.20
2012,01,28,14,19,3.20
2012,01,28,14,20,1.60
2012,01,28,14,21,1.60
2012,01,28,14,22,6.40
2012,01,28,14,23,3.20
2012,01,28,14,24,6.40
2012,01,28,14,25,4.80
2012,01,28,14,26,4.80
2012,01,28,14,27,6.40
2012,01,28,14,28,6.40
2012,01,28,14,29,8.10
2012,01,28,14,30,8.10
2012,01,28,14,31,6.40
2012,01,28,14,32,6.40
2012,01,28,14,33,4.80
2012,01,28,14,34,9.60
2012,01,28,14,35,6.40
2012,01,28,14,36,8.10
2012,01,28,14,37,8.10
2012,01,28,14,38,8.10
2012,01,28,14,39,4.80
2012,01,28,14,40,6.40
2012,01,28,14,41,9.60
2012,01,28,14,42,8.10
2012,01,28,14,43,3.20
2012,01,28,14,44,3.20
2012,01,28,14,45,6.40
2012,01,28,14,46,4.80
2012,01,28,14,47,1.60
2012,01,28,14,48,1.60
2012,01,28,14,49,1.60
2012,01,28,14,50,4.80
2012,01,28,14,51,4.80
2012,01,28,14,52,4.80
2012,01,28,14,53,4.80
2012,01,28,14,54,8.10
2012,01,28,14,55,6.40
2012,01,28,14,56,3.20
2012,01,28,14,57,4.80
2012,01,28,14,58,1.60
2012,01,28,14,59,1.60
2012,01,28,15,00,6.40
2012,01,28,15,01,4.80
2012,01,28,15,02,6.40
2012,01,28,15,03,4.80
2012,01,28,15,04,4.80
2012,01,28,15,05,3.20
2012,01,28,15,06,3.20
2012,01,28,15,07,4.80
2012,01,28,15,08,3.20
2012,01,28,15,09,6.40
2012,01,28,15,10,6.40
2012,01,28,15,11,6.40
2012,01,28,15,12,8.10
2012,01,28,15,13,6.40
2012,01,28,15,14,6.40
2012,01,28,15,15,8.10
2012,01,28,15,16,6.40
2012,01,28,15,17,11.30
2012,01,28,15,18,11.30
2012,01,28,15,19,8.10
2012,01,28,15,20,11.30
2012,01,28,15,21,8.10
2012,01,28,15,22,6.40
2012,01,28,15,23,6.40
2012,01,28,15,24,8.10
2012,01,28,15,25,6.40
2012,01,28,15,26,8.10
2012,01,28,15,27,8.10
2012,01,28,15,28,8.10
2012,01,28,15,29,1.60
2012,01,28,15,30,4.80
2012,01,28,15,31,6.40
2012,01,28,15,32,3.20
2012,01,28,15,33,3.20
2012,01,28,15,34,9.60
2012,01,28,15,35,3.20
2012,01,28,15,36,4.80
2012,01,28,15,37,4.80
2012,01,28,15,38,4.80
2012,01,28,15,39,6.40
2012,01,28,15,40,6.40
2012,01,28,15,41,8.10
2012,01,28,15,42,8.10
2012,01,28,15,43,8.10
2012,01,28,15,44,8.10
2012,01,28,15,45,4.80
2012,01,28,15,46,4.80
2012,01,28,15,47,1.60
2012,01,28,15,49,6.40
2012,01,28,15,50,4.80
2012,01,28,15,51,4.80
2012,01,28,15,52,6.40
2012,01,28,15,53,8.10
2012,01,28,15,54,1.60
2012,01,28,15,55,3.20
2012,01,28,15,56,3.20
2012,01,28,15,57,4.80
2012,01,28,15,58,4.80
2012,01,28,15,59,3.20
2012,01,28,16,00,6.40
2012,01,28,16,01,4.80
2012,01,28,16,02,8.10
2012,01,28,16,03,6.40
2012,01,28,16,04,6.40
2012,01,28,16,05,1.60
2012,01,28,16,06,8.10
2012,01,28,16,07,6.40
2012,01,28,16,08,4.80
2012,01,28,16,09,4.80
2012,01,28,16,10,3.20
2012,01,28,16,11,4.80
2012,01,28,16,12,3.20
2012,01,28,16,13,1.60
2012,01,28,16,14,8.10
2012,01,28,16,15,4.80
2012,01,28,16,16,3.20
2012,01,28,16,17,3.20
2012,01,28,16,18,1.60
2012,01,28,16,19,3.20
2012,01,28,16,20,4.80
2012,01,28,16,21,9.60
2012,01,28,16,22,4.80
2012,01,28,16,23,1.60
2012,01,28,16,24,4.80
2012,01,28,16,25,3.20
2012,01,28,16,26,1.60
2012,01,28,16,27,1.60
2012,01,28,16,28,6.40
2012,01,28,16,29,4.80
2012,01,28,16,30,3.20
2012,01,28,16,31,3.20
2012,01,28,16,32,3.20
2012,01,28,16,33,4.80
2012,01,28,16,34,3.20
2012,01,28,16,35,6.40
2012,01,28,16,36,1.60
2012,01,28,16,37,4.80
2012,01,28,16,38,4.80
2012,01,28,16,39,4.80
2012,01,28,16,40,1.60
2012,01,28,16,41,8.10
2012,01,28,16,42,6.40
2012,01,28,16,43,6.40
2012,01,28,16,44,4.80
2012,01,28,16,45,3.20
2012,01,28,16,46,1.60
2012,01,28,16,47,4.80
2012,01,28,16,48,3.20
2012,01,28,16,50,1.60
2012,01,28,16,51,3.20
2012,01,28,16,52,4.80
2012,01,28,16,53,1.60
2012,01,28,16,54,3.20
2012,01,28,16,56,3.20
2012,01,28,16,57,4.80
2012,01,28,16,58,4.80
2012,01,28,16,59,6.40
2012,01,28,17,00,4.80
2012,01,28,17,01,3.20
2012,01,28,17,02,3.20
2012,01,28,17,03,1.60
2012,01,28,17,04,3.20
2012,01,28,17,05,1.60
2012,01,28,17,06,3.20
2012,01,28,17,07,6.40
2012,01,28,17,08,4.80
2012,01,28,17,09,3.20
2012,01,28,17,10,1.60
2012,01,28,17,11,3.20
2012,01,28,17,12,3.20
2012,01,28,17,13,3.20
2012,01,28,17,14,3.20
2012,01,28,17,16,4.80
2012,01,28,17,17,1.60
2012,01,28,17,18,1.60
2012,01,28,17,19,3.20
2012,01,28,17,21,1.60
2012,01,28,17,23,4.80
2012,01,28,17,24,3.20
2012,01,28,17,25,1.60
2012,01,28,17,26,1.60
2012,01,28,17,27,1.60
2012,01,28,17,28,3.20
2012,01,28,17,29,6.40
2012,01,28,17,30,4.80
2012,01,28,17,31,4.80
2012,01,28,17,32,3.20
2012,01,28,17,33,6.40
2012,01,28,17,34,4.80
2012,01,28,17,35,6.40
2012,01,28,17,36,4.80
2012,01,28,17,37,3.20
2012,01,28,17,38,4.80
2012,01,28,17,39,8.10
2012,01,28,17,40,4.80
2012,01,28,17,41,4.80
2012,01,28,17,42,6.40
2012,01,28,17,43,3.20
2012,01,28,17,44,3.20
2012,01,28,17,45,3.20
2012,01,28,17,46,1.60
2012,01,28,17,47,3.20
2012,01,28,17,48,3.20
2012,01,28,17,49,3.20
2012,01,28,17,50,1.60
2012,01,28,17,51,3.20
2012,01,28,17,52,1.60
2012,01,28,17,53,1.60
2012,01,28,17,54,1.60
2012,01,28,17,55,4.80
2012,01,28,17,56,1.60
2012,01,28,17,57,3.20
2012,01,28,17,58,4.80
2012,01,28,17,59,3.20
2012,01,28,18,00,4.80
2012,01,28,18,01,6.40
2012,01,28,18,02,6.40
2012,01,28,18,03,1.60
2012,01,28,18,04,8.10
2012,01,28,18,05,4.80
2012,01,28,18,06,4.80
2012,01,28,18,07,6.40
2012,01,28,18,08,8.10
2012,01,28,18,09,8.10
2012,01,28,18,10,8.10
2012,01,28,18,11,4.80
2012,01,28,18,12,1.60
2012,01,28,18,13,1.60
2012,01,28,18,14,1.60
2012,01,28,18,15,6.40
2012,01,28,18,16,6.40
2012,01,28,18,17,1.60
2012,01,28,18,18,3.20
2012,01,28,18,19,3.20
2012,01,28,18,20,1.60
2012,01,28,18,22,1.60
2012,01,28,18,23,1.60
2012,01,28,18,26,3.20
2012,01,28,18,27,4.80
2012,01,28,18,28,3.20
2012,01,28,18,29,3.20
2012,01,28,18,30,3.20
2012,01,28,18,36,1.60
2012,01,28,18,37,3.20
2012,01,28,18,38,3.20
2012,01,28,18,39,4.80
2012,01,28,18,40,3.20
2012,01,28,18,44,1.60
2012,01,28,18,45,3.20
2012,01,28,18,46,4.80
2012,01,28,18,47,4.80
2012,01,28,18,48,3.20
2012,01,28,18,49,1.60
2012,01,28,18,50,3.20
2012,01,28,18,51,6.40
2012,01,28,18,52,4.80
2012,01,28,18,53,3.20
2012,01,28,18,54,1.60
2012,01,28,18,55,6.40
2012,01,28,18,56,3.20
2012,01,28,18,57,1.60
2012,01,28,18,58,3.20
2012,01,28,18,59,1.60
2012,01,28,19,00,4.80
2012,01,28,19,01,1.60
2012,01,28,19,02,1.60
2012,01,28,19,03,1.60
2012,01,28,19,04,1.60
2012,01,28,19,08,1.60
2012,01,28,19,09,3.20
2012,01,28,19,10,3.20
2012,01,28,19,15,1.60
2012,01,28,19,16,3.20
2012,01,28,19,17,4.80
2012,01,28,19,18,4.80
2012,01,28,19,19,4.80
2012,01,28,19,21,1.60
2012,01,28,19,23,3.20
2012,01,28,19,24,3.20
2012,01,28,19,26,3.20
2012,01,28,19,27,3.20
2012,01,28,19,28,1.60
2012,01,28,19,29,1.60
2012,01,28,19,30,6.40
2012,01,28,19,31,4.80
2012,01,28,19,32,3.20
2012,01,28,19,33,1.60
2012,01,28,19,34,1.60
2012,01,28,19,35,1.60
2012,01,28,19,37,1.60
2012,01,28,19,39,1.60
2012,01,28,19,44,3.20
2012,01,28,19,45,1.60
2012,01,28,19,46,4.80
2012,01,28,19,47,6.40
2012,01,28,19,48,4.80
2012,01,28,19,49,4.80
2012,01,28,19,50,1.60
2012,01,28,19,51,4.80
2012,01,28,19,52,6.40
2012,01,28,19,53,3.20
2012,01,28,19,54,1.60
2012,01,28,19,57,4.80
2012,01,28,19,58,6.40
2012,01,28,20,00,4.80
2012,01,28,20,01,1.60
2012,01,28,20,02,3.20
2012,01,28,20,03,3.20
2012,01,28,20,04,4.80
2012,01,28,20,05,1.60
2012,01,28,20,06,6.40
2012,01,28,20,07,6.40
2012,01,28,20,08,3.20
2012,01,28,20,09,4.80
2012,01,28,20,10,6.40
2012,01,28,20,11,6.40
2012,01,28,20,12,4.80
2012,01,28,20,13,3.20
2012,01,28,20,14,6.40
2012,01,28,20,15,4.80
2012,01,28,20,16,3.20
2012,01,28,20,18,4.80
2012,01,28,20,19,3.20
2012,01,28,20,20,3.20
2012,01,28,20,21,4.80
2012,01,28,20,22,1.60
2012,01,28,20,23,3.20
2012,01,28,20,24,3.20
2012,01,28,20,25,3.20
2012,01,28,20,26,6.40
2012,01,28,20,27,4.80
2012,01,28,20,28,3.20
2012,01,28,20,29,3.20
2012,01,28,20,30,4.80
2012,01,28,20,31,1.60
2012,01,28,20,33,3.20
2012,01,28,20,34,3.20
2012,01,28,20,35,1.60
2012,01,28,20,36,1.60
2012,01,28,20,37,1.60
2012,01,28,20,38,4.80
2012,01,28,20,39,6.40
2012,01,28,20,40,1.60
2012,01,28,20,41,3.20
2012,01,28,20,42,3.20
2012,01,28,20,43,4.80
2012,01,28,20,44,8.10
2012,01,28,20,45,11.30
2012,01,28,20,46,11.30
2012,01,28,20,47,6.40
2012,01,28,20,48,4.80
2012,01,28,20,49,6.40
2012,01,28,20,50,3.20
2012,01,28,20,51,1.60
2012,01,28,20,52,3.20
2012,01,28,20,53,4.80
2012,01,28,20,54,6.40
2012,01,28,20,55,3.20
2012,01,28,20,56,4.80
2012,01,28,20,57,4.80
2012,01,28,20,58,3.20
2012,01,28,20,59,3.20
2012,01,28,21,02,3.20
2012,01,28,21,03,4.80
2012,01,28,21,04,6.40
2012,01,28,21,05,3.20
2012,01,28,21,06,3.20
2012,01,28,21,07,6.40
2012,01,28,21,08,3.20
2012,01,28,21,09,1.60
2012,01,28,21,10,4.80
2012,01,28,21,11,8.10
2012,01,28,21,12,8.10
2012,01,28,21,13,4.80
2012,01,28,21,14,3.20
2012,01,28,21,15,3.20
2012,01,28,21,16,4.80
2012,01,28,21,17,6.40
2012,01,28,21,18,6.40
2012,01,28,21,19,6.40
2012,01,28,21,20,6.40
2012,01,28,21,21,6.40
2012,01,28,21,22,1.60
2012,01,28,21,23,3.20
2012,01,28,21,24,3.20
2012,01,28,21,26,1.60
2012,01,28,21,27,3.20
2012,01,28,21,28,4.80
2012,01,28,21,29,4.80
2012,01,28,21,30,3.20
2012,01,28,21,31,6.40
2012,01,28,21,32,3.20
2012,01,28,21,33,3.20
2012,01,28,21,34,1.60
2012,01,28,21,37,1.60
2012,01,28,21,38,1.60
2012,01,28,21,41,3.20
2012,01,28,21,42,4.80
2012,01,28,21,43,1.60
2012,01,28,21,46,1.60
2012,01,28,21,49,1.60
2012,01,28,22,07,3.20
2012,01,28,22,08,4.80
2012,01,28,22,09,3.20
2012,01,28,22,10,4.80
2012,01,28,22,11,6.40
2012,01,28,22,12,6.40
2012,01,28,22,13,4.80
2012,01,28,22,14,3.20
2012,01,28,22,15,4.80
2012,01,28,22,16,6.40
2012,01,28,22,17,4.80
2012,01,28,22,18,6.40
2012,01,28,22,19,6.40
2012,01,28,22,20,1.60
2012,01,28,22,21,1.60
2012,01,28,22,22,3.20
2012,01,28,22,24,1.60
2012,01,28,22,25,1.60
2012,01,28,22,26,4.80
2012,01,28,22,27,3.20
2012,01,28,22,28,3.20
2012,01,28,22,29,3.20
2012,01,28,22,30,1.60
2012,01,28,22,31,3.20
2012,01,28,22,32,3.20
2012,01,28,22,33,3.20
2012,01,28,22,34,1.60
2012,01,28,22,35,1.60
2012,01,28,22,37,1.60
2012,01,28,22,38,3.20
2012,01,28,22,39,1.60
2012,01,28,22,51,1.60
2012,01,28,22,52,3.20
2012,01,28,22,53,1.60
2012,01,28,22,57,1.60
2012,01,28,22,58,1.60
2012,01,28,23,10,1.60
2012,01,28,23,11,3.20
2012,01,28,23,12,4.80
2012,01,28,23,13,6.40
2012,01,28,23,14,6.40
2012,01,28,23,15,8.10
2012,01,28,23,16,8.10
2012,01,28,23,17,6.40
2012,01,28,23,18,6.40
2012,01,28,23,19,3.20
2012,01,28,23,20,3.20
2012,01,28,23,21,1.60
2012,01,28,23,22,4.80
2012,01,28,23,23,8.10
2012,01,28,23,24,4.80
2012,01,28,23,25,3.20
2012,01,28,23,26,4.80
2012,01,28,23,27,6.40
2012,01,28,23,28,3.20
2012,01,28,23,32,1.60
2012,01,28,23,33,3.20
2012,01,28,23,34,4.80
2012,01,28,23,35,6.40
2012,01,28,23,36,6.40
2012,01,28,23,37,6.40
2012,01,28,23,38,4.80
2012,01,28,23,39,3.20
2012,01,28,23,40,1.60
2012,01,28,23,41,3.20
2012,01,28,23,42,1.60
2012,01,28,23,49,1.60
2012,01,28,23,50,3.20
2012,01,28,23,51,3.20
2012,01,28,23,52,8.10
2012,01,28,23,53,9.60
2012,01,28,23,54,9.60
2012,01,28,23,55,9.60
2012,01,28,23,56,14.50
2012,01,28,23,57,9.60
2012,01,28,23,58,11.30
2012,01,28,23,59,11.30
